Theta_e
340 345 348 352 365 367 359 353 346 345 344 341 342 347 354 354 353 353 341 345 347 348 349 350 349 352 352 352 352 352 353 353 352 348 351 352 353 352 353 352 352 352 350 351 351 352 352 351 351
346 346 351 361 370 370 358 347 347 345 343 344 346 349 351 351 342 342 343 346 346 346 346 349 348 351 351 352 352 352 353 352 349 350 348 353 354 352 349 350 351 349 352 352 352 350 351 351 351
347 350 361 365 362 368 358 348 348 344 344 348 351 352 351 345 342 342 344 346 346 349 351 349 345 350 352 351 352 352 352 353 352 352 347 352 353 353 353 353 352 352 350 352 352 352 351 351 351
349 353 357 366 363 361 353 347 347 345 351 352 353 356 345 342 342 341 343 346 348 350 346 343 341 345 345 345 350 351 352 352 352 350 347 353 354 351 349 349 345 348 345 352 352 352 351 350 349
352 356 363 367 363 360 353 346 346 351 354 353 353 352 346 343 341 342 344 345 347 347 347 345 352 349 350 351 350 350 352 352 352 352 353 354 354 351 352 351 352 352 350 351 351 350 349 349 348
356 359 365 366 365 361 357 349 347 351 354 354 353 350 350 342 341 342 344 346 347 347 349 348 349 351 351 352 352 350 352 352 352 352 352 350 353 353 352 352 351 351 350 350 350 350 348 348 346
361 362 364 362 365 363 361 354 350 352 353 352 347 353 347 343 342 343 344 346 346 349 349 346 348 350 351 352 352 351 352 352 352 351 352 353 352 353 352 352 352 351 351 350 350 350 349 347 334
358 361 362 359 362 367 358 355 353 352 353 347 347 352 350 344 343 345 344 345 345 346 347 347 348 349 348 349 352 351 352 351 351 351 350 352 352 348 349 344 352 351 350 350 349 343 343 339 334
352 365 365 363 362 363 356 356 353 352 351 349 349 347 345 345 345 345 345 344 343 345 347 347 348 350 347 348 348 348 351 351 344 345 348 348 349 349 350 345 348 345 345 344 343 345 346 339 340
358 365 363 358 359 359 356 354 354 355 353 352 349 347 345 345 345 345 346 343 342 343 346 346 345 345 348 347 349 347 349 348 349 349 350 350 349 349 346 345 342 340 343 344 346 347 347 349 347
354 361 356 358 357 355 354 352 352 355 357 351 353 349 345 344 344 343 342 341 343 343 345 346 346 349 348 348 348 346 346 347 348 349 349 350 348 348 343 347 348 348 348 350 349 349 347 344 341
356 353 358 358 354 354 354 352 354 352 354 349 349 346 344 344 342 341 342 343 343 345 345 344 346 348 348 347 346 344 342 343 345 347 349 350 348 345 344 345 346 346 347 348 346 344 346 344 345
354 353 357 356 349 350 349 354 353 354 348 348 347 345 343 342 340 341 342 343 344 344 345 345 346 348 348 346 342 342 341 343 345 347 348 347 345 346 345 347 346 345 347 347 345 344 345 344 345
351 354 355 352 354 352 354 354 352 348 346 347 346 343 342 341 340 342 343 344 344 345 345 345 347 348 351 350 344 344 344 342 345 346 347 346 346 347 348 347 346 345 349 349 346 348 343 344 344
347 357 356 354 353 354 349 351 353 348 346 347 344 342 341 340 340 342 343 344 344 345 346 346 346 348 352 351 345 344 342 343 344 346 349 349 348 352 349 348 347 346 346 351 346 345 343 342 341
350 353 363 356 353 352 351 354 354 346 346 345 342 341 341 341 341 341 343 343 344 346 346 346 344 347 350 349 344 342 343 342 343 346 347 350 352 351 351 348 347 344 347 344 344 343 342 343 343
349 352 365 361 354 353 355 356 354 346 344 342 342 343 344 343 342 341 342 343 345 347 347 346 345 347 349 349 349 345 347 343 344 344 346 350 350 352 349 347 347 353 346 344 345 343 346 346 343
347 349 359 363 357 354 356 358 353 351 344 343 343 344 344 344 344 342 342 344 345 348 348 348 347 349 350 350 350 347 345 345 343 345 349 350 349 350 351 348 347 353 345 348 348 351 346 345 347
341 344 360 361 359 356 357 358 353 350 348 346 343 344 345 345 344 342 345 345 345 346 350 352 351 351 350 350 349 349 348 345 344 346 349 351 349 350 351 349 348 349 350 349 351 352 349 345 347
339 342 365 359 357 354 358 360 354 345 346 351 344 344 345 345 346 345 346 345 345 346 348 351 353 352 353 350 350 348 348 348 348 349 347 348 349 351 351 350 347 349 349 350 352 354 349 345 348
339 346 360 362 359 354 357 363 360 348 343 345 348 346 346 348 348 347 347 346 348 347 347 349 354 353 354 352 354 352 350 350 349 351 350 351 349 349 352 351 353 348 353 348 354 349 352 345 347
341 347 354 357 364 366 357 369 364 360 350 349 349 347 346 347 345 349 348 346 348 347 349 348 352 354 353 353 351 351 351 350 349 349 349 350 351 350 350 350 352 352 351 354 351 351 352 351 345
338 336 350 356 355 361 359 359 366 361 352 350 349 349 348 346 348 347 347 348 346 347 348 349 350 353 352 352 352 351 352 350 348 350 354 351 353 351 350 352 351 351 350 351 355 354 355 351 352
334 335 344 348 349 360 355 353 370 360 354 349 352 349 348 348 344 346 346 347 348 346 348 349 350 353 354 353 352 353 353 352 352 353 352 349 352 351 351 351 352 353 352 354 353 354 355 357 355
334 336 348 351 349 349 352 348 359 358 354 354 351 349 346 344 345 345 346 347 350 346 346 348 351 354 353 353 353 353 353 354 352 354 352 348 347 349 351 353 354 353 354 355 355 355 356 355 356
336 339 349 353 346 347 345 345 356 353 353 353 350 351 347 346 345 344 347 349 347 348 345 347 353 354 354 351 352 353 353 352 351 353 351 349 348 349 355 353 353 354 353 354 355 354 352 352 354
335 340 342 344 343 346 352 356 352 349 351 353 354 352 349 347 344 343 345 347 347 348 349 347 353 354 353 353 353 353 353 352 352 353 355 352 354 350 353 352 352 353 354 354 355 353 352 356 355
328 334 340 342 346 344 351 354 356 355 352 352 353 354 352 351 351 343 347 347 350 350 350 350 353 354 352 352 354 353 352 352 351 353 353 353 355 354 353 353 352 353 353 353 354 351 352 352 353
327 329 334 338 338 341 342 352 356 355 354 352 352 353 353 353 352 352 345 349 350 351 354 352 353 355 353 350 351 351 350 350 352 352 352 353 356 358 356 355 353 353 353 353 354 355 356 355 353
327 326 332 338 342 337 336 351 357 354 352 353 352 354 353 352 351 348 348 348 353 354 354 353 355 355 353 351 353 352 351 350 350 350 353 353 355 355 356 355 355 354 354 355 355 353 349 352 352
Wind_Speed
5 6 10 6 3 4 6 8 13 16 15 13 9 13 17 17 10 13 27 23 23 21 17 14 14 14 14 15 15 16 16 16 15 16 16 17 17 18 19 18 19 20 20 19 18 18 18 17 17
8 4 5 2 3 4 8 13 17 12 14 14 13 11 18 14 18 22 22 23 23 20 18 15 15 15 14 13 14 15 15 15 15 14 16 17 17 19 19 18 18 20 18 19 19 17 16 16 17
7 4 2 2 2 1 11 11 17 15 15 13 12 14 10 18 20 19 28 24 23 23 18 14 13 12 13 14 13 14 14 15 15 15 16 17 17 17 18 18 17 16 16 15 16 15 16 16 16
5 4 3 2 6 2 9 14 17 20 13 8 15 13 9 20 16 28 25 24 23 16 16 13 12 10 10 11 11 12 14 14 14 15 15 17 17 17 18 16 15 15 16 14 14 15 15 15 15
6 3 1 2 8 4 8 16 18 16 13 11 9 19 20 15 26 25 23 21 27 19 15 13 12 10 11 11 11 12 13 14 14 15 15 16 17 16 17 16 16 17 17 17 16 16 15 15 15
1 3 1 3 8 5 9 11 13 14 13 14 21 19 14 20 25 24 22 24 20 21 18 14 12 11 11 11 12 12 13 13 14 15 15 16 16 16 17 17 18 17 17 15 15 15 15 15 13
3 2 1 4 10 11 4 9 9 13 11 19 14 18 15 22 22 22 20 23 21 19 18 14 12 10 12 12 12 13 13 14 14 15 15 15 15 15 16 15 16 16 15 15 14 14 15 14 14
3 3 4 3 7 5 4 3 1 4 11 12 18 9 20 23 23 21 21 17 17 19 15 17 14 11 13 11 12 13 14 14 15 14 15 15 15 14 14 16 15 14 14 14 13 13 15 16 15
4 4 3 6 8 7 5 6 4 7 9 6 5 20 23 25 23 23 22 13 14 12 19 17 14 17 14 12 11 14 14 15 15 14 14 12 13 12 13 13 13 12 12 13 14 12 10 16 19
5 3 5 6 9 12 7 11 8 11 10 8 17 22 25 24 21 22 22 18 15 13 15 9 16 13 14 12 9 12 13 12 11 13 11 13 11 9 13 11 11 11 10 11 9 8 4 6 4
5 1 2 3 12 14 8 11 12 12 9 15 21 24 22 23 20 18 18 17 16 13 18 21 17 15 11 12 11 13 13 12 12 11 15 12 14 13 12 9 8 5 5 2 2 3 5 8 9
3 3 11 12 15 11 7 5 4 7 7 16 22 22 22 20 19 20 19 17 15 12 15 15 13 10 10 12 11 9 12 13 14 12 13 11 11 10 7 9 9 5 8 6 10 11 5 10 10
6 4 13 14 13 9 5 6 5 8 9 18 21 21 20 18 19 19 18 17 14 13 14 14 12 10 10 8 10 12 13 13 14 12 8 11 12 11 10 5 8 6 6 7 9 10 8 8 9
9 14 16 17 13 5 9 5 4 11 13 20 21 21 19 18 18 18 17 17 15 14 14 14 14 13 11 9 10 11 13 14 13 11 10 10 12 11 11 7 7 5 10 10 8 5 6 6 8
7 18 16 11 6 3 7 3 4 12 18 21 21 19 18 17 18 16 17 16 14 13 16 13 14 13 13 11 13 11 14 13 14 12 10 10 10 6 8 5 3 10 6 6 6 4 3 6 8
13 15 10 11 10 3 2 7 10 15 18 21 20 17 16 16 18 16 16 16 15 14 13 13 15 13 14 12 12 13 13 13 13 14 12 8 8 6 4 6 4 5 3 6 4 6 6 5 7
14 9 16 8 11 7 7 9 10 15 18 19 18 18 16 15 16 17 17 17 16 14 13 11 14 15 15 11 9 10 11 12 13 14 12 8 7 3 3 3 6 4 3 4 5 5 6 4 5
15 15 16 13 14 13 12 8 10 6 11 18 18 18 17 17 17 17 18 18 15 18 15 9 14 14 14 13 10 13 10 9 12 13 15 8 7 5 5 6 4 6 3 6 8 9 4 4 3
8 13 19 15 14 14 13 10 16 12 6 12 18 19 18 18 21 18 19 18 16 17 16 11 11 14 13 14 14 14 12 10 8 11 11 6 7 5 3 7 4 2 7 10 0 5 2 5 1
13 3 20 11 16 5 11 16 20 16 16 15 14 17 17 16 18 19 19 19 18 16 17 16 11 14 10 9 3 9 12 11 10 9 10 9 7 6 5 4 5 1 5 3 2 6 3 6 5
16 4 17 19 19 14 14 10 20 21 13 16 15 18 17 17 20 11 19 19 18 17 15 16 13 13 12 6 6 7 11 12 10 9 11 10 9 8 4 3 4 4 3 9 2 2 5 6 5
16 4 14 23 23 9 21 4 15 18 19 18 15 18 16 20 8 24 21 21 23 19 16 15 15 12 11 11 9 11 7 9 7 12 11 12 8 8 8 6 4 6 6 5 4 1 5 7 5
2 11 16 33 14 9 17 6 11 20 20 23 19 19 24 17 27 21 22 23 19 20 18 17 15 13 13 11 10 11 9 9 8 8 11 7 6 8 9 8 6 6 5 4 2 2 6 6 9
4 10 7 8 5 11 13 7 12 16 25 26 26 26 27 29 20 23 25 26 19 20 19 18 17 14 13 10 9 7 6 2 7 7 7 10 11 11 10 9 9 7 6 5 4 3 2 7 8
10 12 5 7 7 3 22 11 9 24 31 31 22 25 21 21 22 20 19 19 25 23 19 20 18 16 14 13 12 9 7 6 6 8 9 8 8 12 15 9 9 9 8 6 5 4 3 2 3
17 13 7 9 10 10 10 6 11 21 27 24 23 21 15 17 18 20 18 32 23 20 19 19 20 18 16 14 12 10 7 7 8 8 3 8 9 8 10 11 9 11 10 9 7 7 7 8 5
16 16 18 14 18 4 9 9 11 12 22 19 25 24 23 20 17 20 23 23 18 24 22 19 20 19 17 15 13 12 10 6 3 0 6 7 8 9 9 12 11 9 9 9 8 9 7 3 7
17 17 16 11 19 15 12 9 12 17 17 17 23 27 28 24 12 18 20 21 22 16 27 20 20 20 18 17 13 12 11 9 7 5 6 5 5 8 13 12 12 11 10 9 9 11 11 9 9
13 14 16 16 16 7 8 3 2 20 18 19 21 21 22 10 5 19 16 30 17 28 15 20 21 20 19 17 14 12 11 10 10 9 8 8 9 10 11 12 13 12 11 11 10 11 2 9 9
18 18 15 12 20 14 4 5 4 6 14 17 15 19 22 23 25 12 12 8 29 17 18 22 23 20 18 17 16 15 12 11 11 11 10 9 8 12 12 13 13 13 12 12 12 10 11 11 11
Wind_Direction
229 221 252 277 251 230 153 82 117 116 104 98 85 66 71 34 53 97 142 128 131 128 129 117 114 108 105 101 97 96 91 89 88 93 99 97 97 96 96 98 94 94 92 88 85 82 81 77 76
227 200 253 249 258 163 114 122 120 108 115 102 104 102 74 59 100 121 117 137 129 134 128 124 122 111 109 103 95 93 91 90 88 92 101 102 101 99 99 100 96 96 92 89 86 80 79 78 76
251 246 260 257 252 281 111 127 106 116 116 94 93 50 38 105 115 118 130 138 120 109 118 119 117 112 106 102 99 93 92 87 87 95 104 103 101 100 100 98 95 93 88 87 82 78 78 75 77
228 287 318 293 144 132 124 120 125 131 88 80 107 83 96 99 116 126 137 129 118 124 120 117 111 109 107 103 99 96 90 91 88 95 107 105 107 103 98 96 89 86 87 90 86 86 81 80 76
351 291 147 215 116 75 114 125 131 130 114 128 96 110 112 107 121 132 139 136 129 129 126 117 118 106 109 104 100 102 94 92 92 91 95 105 108 104 100 91 87 95 92 90 88 85 82 84 77
335 281 146 162 128 122 65 128 154 124 102 97 107 122 108 129 135 139 142 124 121 129 124 119 116 114 104 101 107 103 101 97 96 96 100 105 105 106 103 94 95 94 94 90 85 82 85 82 80
262 213 224 130 145 124 100 353 172 125 146 122 127 120 132 143 141 145 132 114 126 125 126 129 126 121 114 108 105 112 108 106 105 104 104 104 107 105 104 99 97 90 87 83 86 86 84 84 83
225 299 195 151 184 113 127 172 204 98 97 131 122 133 149 141 151 142 130 119 149 134 120 128 130 137 125 107 112 112 113 112 108 109 110 111 108 113 112 96 97 90 84 83 84 90 87 82 85
275 261 255 176 169 127 167 129 22 98 133 165 101 138 137 147 151 143 130 157 131 141 135 136 142 125 111 120 119 113 116 114 107 107 108 116 110 117 108 112 98 94 90 83 76 85 104 104 81
206 291 2 349 143 157 154 151 155 156 153 133 123 121 143 148 153 152 154 141 158 136 126 163 127 122 133 121 130 123 141 117 118 115 118 112 113 116 120 113 105 97 88 77 71 81 106 155 135
234 355 34 92 116 134 132 154 171 138 174 151 137 146 152 150 153 146 141 157 133 159 148 108 100 129 135 124 135 144 126 123 118 137 121 124 121 126 117 120 117 115 66 204 58 23 116 66 86
196 257 39 96 128 129 138 111 91 135 175 136 144 150 151 155 158 154 152 147 143 144 107 111 127 106 131 132 160 132 124 132 142 125 122 131 126 117 137 105 109 104 83 86 66 76 72 97 80
141 84 97 121 121 122 133 71 141 143 144 140 147 154 157 159 157 154 145 138 150 148 139 132 134 131 128 160 119 110 136 139 119 142 129 133 115 123 119 134 93 114 118 97 84 78 81 94 86
156 103 116 121 107 90 134 83 269 122 164 147 154 162 163 156 156 145 147 145 154 150 137 136 144 139 133 115 121 145 106 124 139 125 118 122 130 123 132 131 123 98 52 52 69 39 78 79 110
165 124 125 126 107 91 128 60 143 146 146 150 159 165 161 158 149 154 148 152 156 158 144 151 142 144 133 144 151 117 145 134 135 120 132 111 121 93 121 116 55 91 86 138 89 131 137 110 103
190 165 158 133 143 138 290 165 272 153 155 157 162 163 159 158 156 160 154 156 153 150 152 161 149 148 150 144 143 147 132 139 131 139 136 131 127 142 120 137 139 122 72 90 80 116 105 102 95
209 227 125 144 177 148 209 149 225 166 167 165 169 162 162 160 157 161 156 158 150 143 152 162 148 151 144 146 122 132 130 141 146 144 141 137 137 161 116 140 93 264 79 85 106 85 85 131 139
196 208 147 139 183 172 197 150 175 224 198 174 174 166 164 162 160 161 159 152 164 143 157 163 159 140 146 149 153 145 158 154 150 152 137 143 141 146 176 111 143 255 153 100 50 21 30 54 328
275 252 130 147 158 173 201 189 180 191 235 228 183 176 175 169 151 166 153 154 157 155 160 165 138 152 161 162 165 154 162 150 174 145 124 154 154 156 193 127 172 288 62 69 65 198 15 91 309
251 252 107 130 131 112 172 189 181 186 207 223 179 204 171 165 146 166 156 162 158 161 161 163 171 166 173 195 142 142 155 149 175 149 161 174 173 167 163 166 190 222 105 110 352 332 331 101 355
244 257 147 160 170 213 189 196 178 190 218 244 241 221 183 150 157 180 170 175 154 161 170 173 172 181 185 185 158 154 136 151 161 151 170 183 175 182 169 185 26 181 213 153 178 351 328 90 98
230 220 108 162 159 183 193 158 182 167 200 233 246 213 204 161 176 172 182 178 171 164 169 178 175 181 191 187 175 150 165 178 197 184 180 168 191 195 182 183 185 215 330 89 169 103 349 333 117
266 250 130 243 147 88 198 240 142 166 187 217 236 188 224 179 183 188 173 171 175 167 171 168 180 179 197 180 169 162 195 181 175 135 142 156 184 208 195 185 196 216 229 180 16 62 329 325 328
58 245 220 276 187 214 160 187 169 174 185 209 214 201 189 197 199 162 188 169 168 171 171 162 175 177 178 182 180 199 170 166 114 136 158 180 177 194 202 192 200 218 231 166 198 198 267 347 360
215 220 182 227 214 228 164 210 160 182 189 191 191 200 205 195 184 166 174 178 165 166 177 160 172 177 181 183 187 184 175 166 171 177 197 187 180 189 178 201 202 214 222 202 218 208 205 221 305
212 214 209 207 219 178 143 214 134 179 173 191 191 194 205 217 198 177 173 161 161 202 174 169 167 177 182 184 190 193 188 194 193 196 179 185 182 196 162 198 208 217 202 215 217 220 217 209 228
200 220 243 269 278 174 253 108 124 152 157 174 182 179 206 211 222 186 165 161 192 173 174 172 169 179 183 185 186 190 195 203 199 178 198 189 188 181 180 191 196 209 210 224 222 239 224 218 220
259 210 233 231 265 270 143 219 140 166 182 178 179 186 188 201 239 191 163 160 175 193 172 178 172 182 182 187 184 187 194 200 208 211 214 253 217 209 175 193 201 209 214 220 227 232 221 230 240
211 245 230 242 247 261 263 138 231 161 173 178 181 185 181 178 350 276 181 158 154 181 170 171 176 180 183 191 186 198 191 195 202 209 216 219 221 209 198 200 201 206 213 218 225 251 243 209 234
223 218 237 238 236 269 286 247 359 65 153 165 166 162 177 172 175 235 186 181 159 153 169 188 189 179 191 189 188 193 194 202 200 217 208 211 212 206 199 202 203 207 213 214 219 229 230 222 232